Appleton, MN

4:55 AM CDT on September 23, 2017 (GMT -0500)
Appleton Municipal

Weather History for KAQP - March, 2013

Change the Weather History Date:

Saturday, March 16, 2013

  Actual Average Record
Temperature  
Mean Temperature 16 °F -  
Max Temperature 28 °F 33 °F 80 °F (2012)
Min Temperature 3 °F 16 °F -9 °F (2002)
Degree Days  
Heating Degree Days 50    
Moisture  
Dew Point 7 °F    
Average Humidity 81    
Maximum Humidity 100    
Minimum Humidity 68    
Precipitation  
Precipitation 0.00 in - - ()
Sea Level Pressure  
Sea Level Pressure 30.17 in    
Wind  
Wind Speed 14 mph (NNW)    
Max Wind Speed 21 mph    
Max Gust Speed 23 mph    
Visibility 9 miles    
Events Snow    
Averages and records for this station are not official NWS values.
T = Trace of Precipitation, MM = Missing Value Source: NWS Daily Summary

Daily Weather History Graph

Daily Weather History Graph

Search for Another Location

Airport or City:

Trip Planner

Search our weather history database for the weather conditions in past years. The results will help you decide how hot, cold, wet, or windy it might be!

Date:

Astronomy

Mar. 16, 2013 Rise Set
Actual Time 7:34 AM CDT 7:31 PM CDT
Civil Twilight 7:04 AM CDT 8:01 PM CDT
Nautical Twilight 6:30 AM CDT 8:35 PM CDT
Astronomical Twilight 5:55 AM CDT 9:10 PM CDT
Moon 9:50 AM CDT (3/16) No Moon Set
Length of Visible Light 12h 56m
Length of Day
11h 57m
Waxing Crescent, 23% of the Moon is Illuminated
Mar 16
Waxing Crescent
Mar 19
First Quarter
Mar 27
Full
Apr 2
Last Quarter
Apr 10
New

Hourly Weather History & Observations

Time (CDT) Temp. Windchill Dew Point Humidity Pressure Visibility Wind Dir Wind Speed Gust Speed Precip Events Conditions
12:13 AM 28.4 °F 18.0 °F 26.6 °F 93% 29.96 in 1.8 mi North 12.7 mph - N/A Snow Light Snow
12:33 AM 28.4 °F 18.0 °F 26.6 °F 93% 29.97 in 2.5 mi North 12.7 mph - N/A   Overcast
12:53 AM 26.6 °F 14.7 °F 26.6 °F 100% 29.97 in 2.0 mi North 15.0 mph - N/A Snow Light Snow
1:14 AM 26.6 °F 15.2 °F 24.8 °F 93% 29.98 in 2.5 mi NNW 13.8 mph 18.4 mph N/A   Overcast
1:33 AM 24.8 °F 11.5 °F 21.2 °F 86% 29.98 in 2.5 mi NNW 17.3 mph - N/A Snow Light Snow
1:53 AM 23.0 °F 8.7 °F 21.2 °F 93% 29.99 in 4.0 mi NNW 18.4 mph - N/A   Overcast
2:13 AM 21.2 °F 6.8 °F 19.4 °F 93% 29.99 in 4.0 mi NNW 17.3 mph - N/A   Overcast
2:33 AM 21.2 °F 6.8 °F 19.4 °F 93% 30.00 in 7.0 mi NNW 17.3 mph 23.0 mph N/A   Overcast
2:53 AM 19.4 °F 4.5 °F 17.6 °F 93% 30.02 in 10.0 mi NNW 17.3 mph - N/A   Overcast
3:13 AM 19.4 °F 4.1 °F 17.6 °F 93% 30.03 in 10.0 mi NNW 18.4 mph - N/A   Overcast
3:33 AM 19.4 °F 3.6 °F 15.8 °F 86% 30.04 in 10.0 mi NNW 19.6 mph - N/A   Overcast
3:54 AM 17.6 °F 1.3 °F 15.8 °F 93% 30.06 in 7.0 mi NNW 19.6 mph - N/A Snow Light Snow
4:13 AM 17.6 °F 1.7 °F 14.0 °F 86% 30.06 in 5.0 mi NNW 18.4 mph - N/A   Overcast
4:33 AM 15.8 °F -0.6 °F 12.2 °F 86% 30.07 in 5.0 mi NNW 18.4 mph - N/A   Overcast
4:53 AM 15.8 °F -0.6 °F 10.4 °F 79% 30.08 in 7.0 mi NNW 18.4 mph - N/A Snow Light Snow
5:33 AM 12.2 °F -5.3 °F 8.6 °F 85% 30.11 in 7.0 mi NNW 18.4 mph 21.9 mph N/A Snow Light Snow
5:53 AM 10.4 °F -8.2 °F 6.8 °F 85% 30.11 in 5.0 mi NNW 19.6 mph - N/A   Overcast
6:13 AM 8.6 °F -11.0 °F 5.0 °F 85% 30.12 in 5.0 mi NNW 20.7 mph - N/A   Overcast
6:33 AM 8.6 °F -10.0 °F 3.2 °F 79% 30.13 in 10.0 mi NNW 18.4 mph 23.0 mph N/A   Scattered Clouds
6:53 AM 6.8 °F -10.7 °F 3.2 °F 85% 30.15 in 10.0 mi NNW 15.0 mph - N/A   Clear
7:13 AM 6.8 °F -11.3 °F 1.4 °F 79% 30.16 in 10.0 mi NW 16.1 mph - N/A   Clear
7:33 AM 5.0 °F -13.6 °F 1.4 °F 85% 30.18 in 10.0 mi NW 16.1 mph - N/A   Clear
7:53 AM 3.2 °F -14.6 °F -0.4 °F 85% 30.18 in 10.0 mi NW 13.8 mph - N/A   Clear
8:13 AM 3.2 °F -14.6 °F -0.4 °F 85% 30.19 in 10.0 mi NW 13.8 mph - N/A   Mostly Cloudy
8:33 AM 3.2 °F -15.3 °F -0.4 °F 85% 30.19 in 10.0 mi NW 15.0 mph - N/A   Overcast
8:53 AM 3.2 °F -15.3 °F -0.4 °F 85% 30.20 in 10.0 mi NW 15.0 mph - N/A   Overcast
9:13 AM 3.2 °F -15.9 °F -0.4 °F 85% 30.21 in 10.0 mi NW 16.1 mph - N/A   Overcast
9:33 AM 5.0 °F -13.6 °F -0.4 °F 78% 30.22 in 10.0 mi NNW 16.1 mph - N/A   Overcast
9:53 AM 6.8 °F -10.0 °F 1.4 °F 79% 30.21 in 10.0 mi NNW 13.8 mph - N/A   Overcast
10:14 AM 6.8 °F -10.7 °F 1.4 °F 79% 30.21 in 10.0 mi NNW 15.0 mph - N/A   Overcast
10:33 AM 8.6 °F -7.7 °F 1.4 °F 73% 30.21 in 10.0 mi NNW 13.8 mph - N/A   Mostly Cloudy
10:53 AM 8.6 °F -7.7 °F 1.4 °F 73% 30.22 in 10.0 mi NW 13.8 mph - N/A   Scattered Clouds
11:13 AM 8.6 °F -6.3 °F 3.2 °F 79% 30.22 in 10.0 mi NW 11.5 mph - N/A   Scattered Clouds
11:33 AM 8.6 °F -5.5 °F 3.2 °F 79% 30.23 in 10.0 mi NNW 10.4 mph - N/A   Scattered Clouds
11:54 AM 10.4 °F -2.4 °F 5.0 °F 79% 30.24 in 10.0 mi NW 9.2 mph - N/A   Mostly Cloudy
12:13 PM 10.4 °F -1.5 °F 5.0 °F 79% 30.23 in 10.0 mi NW 8.1 mph - N/A   Overcast
12:33 PM 12.2 °F -1.0 °F 6.8 °F 79% 30.23 in 10.0 mi NW 10.4 mph - N/A   Overcast
12:53 PM 12.2 °F -0.2 °F 6.8 °F 79% 30.23 in 10.0 mi NNW 9.2 mph - N/A   Overcast
1:14 PM 12.2 °F -2.5 °F 8.6 °F 85% 30.23 in 7.0 mi NNW 12.7 mph - N/A   Overcast
1:34 PM 14.0 °F -1.4 °F 8.6 °F 79% 30.22 in 3.0 mi North 15.0 mph - N/A   Haze
1:53 PM 15.8 °F 1.4 °F 8.6 °F 73% 30.22 in 10.0 mi NNW 13.8 mph - N/A   Mostly Cloudy
2:13 PM 15.8 °F 2.1 °F 8.6 °F 73% 30.21 in 10.0 mi NNW 12.7 mph - N/A   Overcast
2:33 PM 15.8 °F 2.7 °F 8.6 °F 73% 30.21 in 10.0 mi NNW 11.5 mph - N/A   Overcast
2:53 PM 15.8 °F 2.7 °F 8.6 °F 73% 30.21 in 10.0 mi NNW 11.5 mph - N/A   Overcast
3:13 PM 15.8 °F 2.1 °F 8.6 °F 73% 30.20 in 10.0 mi NNW 12.7 mph - N/A   Overcast
3:33 PM 15.8 °F 2.1 °F 8.6 °F 73% 30.19 in 10.0 mi North 12.7 mph - N/A   Overcast
3:53 PM 15.8 °F 0.9 °F 6.8 °F 68% 30.20 in 10.0 mi North 15.0 mph - N/A   Mostly Cloudy
4:13 PM 15.8 °F 1.4 °F 6.8 °F 68% 30.19 in 10.0 mi North 13.8 mph - N/A   Scattered Clouds
4:34 PM 14.0 °F -0.8 °F 6.8 °F 73% 30.19 in 10.0 mi NNW 13.8 mph - N/A   Clear
4:53 PM 14.0 °F -0.2 °F 6.8 °F 73% 30.21 in 10.0 mi NNW 12.7 mph - N/A   Clear
5:13 PM 12.2 °F -3.7 °F 6.8 °F 79% 30.21 in 10.0 mi NW 15.0 mph - N/A   Clear
5:34 PM 12.2 °F -3.1 °F 6.8 °F 79% 30.21 in 10.0 mi NNW 13.8 mph - N/A   Clear
5:54 PM 12.2 °F -3.1 °F 6.8 °F 79% 30.21 in 10.0 mi NNW 13.8 mph - N/A   Clear
6:14 PM 12.2 °F -3.1 °F 5.0 °F 73% 30.21 in 10.0 mi NNW 13.8 mph - N/A   Clear
6:33 PM 10.4 °F -4.1 °F 5.0 °F 79% 30.22 in 10.0 mi NW 11.5 mph - N/A   Clear
6:53 PM 10.4 °F -4.1 °F 3.2 °F 73% 30.22 in 10.0 mi NNW 11.5 mph - N/A   Clear
7:13 PM 10.4 °F -1.5 °F 3.2 °F 73% 30.23 in 10.0 mi NNW 8.1 mph - N/A   Clear
7:33 PM 10.4 °F -4.1 °F 3.2 °F 73% 30.24 in 10.0 mi NNW 11.5 mph - N/A   Clear
7:53 PM 8.6 °F -5.5 °F 3.2 °F 79% 30.25 in 10.0 mi NNW 10.4 mph - N/A   Clear
8:13 PM 8.6 °F -4.7 °F 3.2 °F 79% 30.26 in 10.0 mi NNW 9.2 mph - N/A   Clear
8:33 PM 8.6 °F -2.6 °F 3.2 °F 79% 30.26 in 10.0 mi NNW 6.9 mph - N/A   Clear
8:53 PM 8.6 °F -3.7 °F 3.2 °F 79% 30.27 in 10.0 mi North 8.1 mph - N/A   Clear
9:34 PM 6.8 °F -6.9 °F 1.4 °F 79% 30.27 in 10.0 mi North 9.2 mph - N/A   Clear
9:54 PM 6.8 °F -5.9 °F 1.4 °F 79% 30.27 in 10.0 mi NNW 8.1 mph - N/A   Clear
10:13 PM 6.8 °F -4.8 °F 1.4 °F 79% 30.27 in 10.0 mi NNW 6.9 mph - N/A   Clear
10:33 PM 6.8 °F -2.0 °F 1.4 °F 79% 30.28 in 10.0 mi NNW 4.6 mph - N/A   Clear
10:53 PM 6.8 °F -5.9 °F 1.4 °F 79% 30.28 in 10.0 mi North 8.1 mph - N/A   Clear
11:13 PM 6.8 °F -4.8 °F 1.4 °F 79% 30.28 in 10.0 mi NNW 6.9 mph - N/A   Clear
11:34 PM 6.8 °F -4.8 °F 1.4 °F 79% 30.28 in 10.0 mi North 6.9 mph - N/A   Clear
11:53 PM 6.8 °F -4.8 °F 1.4 °F 79% 30.27 in 10.0 mi North 6.9 mph - N/A   Clear